Location: Milton Keynes
(52.0316°N, 0.7531°W)
Time: 00:28:41
(UTC+00:00)

ISS - Visible Passes

Search period start: 24 January 2019 00:00
Search period end: 03 February 2019 00:00
Orbit: 404 x 410 km, 51.6° (Epoch: 24 January)

Date Brightness Start Highest point End Pass type
(mag) Time Alt. Az. Time Alt. Az. Time Alt. Az.
24 Jan -2.0 18:22:25 10° S 18:24:47 19° SE 18:24:47 19° SE visible
25 Jan -1.4 17:32:14 10° SSE 17:33:41 12° SE 17:35:07 10° ESE visible
25 Jan -2.2 19:06:26 10° SW 19:08:24 30° SSW 19:08:24 30° SSW visible
26 Jan -2.7 18:15:21 10° SW 18:18:20 32° SSE 18:19:14 27° ESE visible
26 Jan -0.7 19:51:20 10° WSW 19:51:57 15° WSW 19:51:57 15° WSW visible
27 Jan -2.1 17:24:27 10° SSW 17:27:05 22° SSE 17:29:44 10° E visible
27 Jan -3.2 18:59:58 10° WSW 19:02:42 53° SW 19:02:42 53° SW visible
28 Jan -3.4 18:08:41 10° WSW 18:11:54 51° SSE 18:13:26 26° E visible
28 Jan -1.0 19:45:02 10° W 19:46:09 19° W 19:46:09 19° W visible
29 Jan -2.8 17:17:29 10° SW 17:20:34 37° SSE 17:23:39 10° E visible
29 Jan -3.8 18:53:37 10° W 18:56:50 80° SSW 18:56:50 80° SSW visible
30 Jan -3.7 18:02:13 10° WSW 18:05:30 72° SSE 18:07:30 22° E visible
30 Jan -1.5 19:38:42 10° W 19:40:12 25° W 19:40:12 25° W visible
31 Jan -4.0 18:47:16 10° W 18:50:35 86° S 18:50:52 72° ESE visible
01 Feb -3.8 17:55:48 10° W 17:59:07 85° S 18:01:32 17° E visible
01 Feb -1.9 19:32:20 10° W 19:34:14 31° W 19:34:14 31° W visible
02 Feb -3.8 18:40:51 10° W 18:44:10 74° S 18:44:55 49° ESE visible
02 Feb -0.2 20:17:32 10° W 20:17:38 11° W 20:17:38 11° W visible
